Location: Newark
(41.0400°S, 62.7845°W)
Time: 16:27:44
(UTC+00:00)

N. Korean satellite - Pass Details

Date: 27 October 2021
Orbit: 447 x 495 km, 97.3° (Epoch: 30 November)

Event Time Altitude Azimuth Distance (km) Brightness Sun altitude
Rises 07:39:26 0° 52° (NE) 2,496 10.4 -15.3°
Reaches altitude 10° 07:42:05 10° 74° (ENE) 1,621 9.8 -14.9°
Maximum altitude 07:44:12 16° 112° (ESE) 1,319 9.9 -14.5°
Drops below altitude 10° 07:46:20 10° 150° (SSE) 1,624 10.2 -14.2°
Sets 07:48:59 0° 172° (S) 2,503 10.8 -13.8°
